(326800) = 2003 SK327

Discovered at Kitt Peak on 2003-09-18 by Spacewatch.

Orbit

Orbit type: Main Belt

Note: WebGL enabled browser required.

epoch2023-02-25.0
epoch JD2460000.5
perihelion date2018-11-11.40313
perihelion JD2458433.90313
argument of perihelion (°)256.84450
ascending node (°)40.39285
inclination (°)2.48049
eccentricity0.1049928
perihelion distance (AU)2.7299529
Tisserand w.r.t. Jupiter3.2
ΔV w.r.t. Earth (km/sec)10.3
semimajor axis (AU)3.0502020
mean anomaly (°)289.84658
mean daily motion (°/day)0.18501670
aphelion distance (AU)3.370
period (years)5.33
P-vector [x]0.45708639
P-vector [y]-0.79834874
P-vector [z]-0.39206035
Q-vector [x]0.88898001
Q-vector [y]0.42397820
Q-vector [z]0.17308100
absolute magnitude16.79
phase slope0.15
uncertainty0
referenceMPO 745323
observations used161
oppositions13
arc length (days)8135
first opposition used2001
last opposition used2023
residual rms (arc-secs)0.88
perturbers coarse indicatorM-v
perturbers precise indicator003Ek
first observation date used2001-02-27.0
last observation date used2023-06-07.0
computer nameMPCLINUX
JD of orbit computation2456966.747051
perihelion JD uncertainty (days)1.2387E-04
argument of perihelion uncertainty (°)8.9009E-05
ascending node uncertainty (°)8.5550E-05
inclination uncertainty (°)4.7008E-06
eccentricity uncertainty 3.8324E-08
perihelion distance uncertainty (AU)1.2363E-07
Minimum Orbit Intersection Distances (in AU)
for orbit epoch: 2460000.5, reference: E2023-L34
Mercury2.28118
Venus2.00189
Earth1.71457
Mars1.30161
Jupiter1.8019
Saturn5.72197
Uranus15.1603
Neptune26.7215

Observations

168 total observations over interval: 2001 02 27.34974 – 2023 06 07.313780
These data are available for download (format description).

Date (UT) J2000 RA J2000 Dec Magn Location Ref
2001 02 27.34974 11 39 29.73 +05 15 09.9 22.6 V 691 – Steward Observatory, Kitt Peak-Spacewatch MPS 311164
2001 02 27.37322 11 39 28.74 +05 15 14.6 21.6 V 691 – Steward Observatory, Kitt Peak-Spacewatch MPS 311164
2001 02 27.39430 11 39 27.84 +05 15 21.3 22.2 V 691 – Steward Observatory, Kitt Peak-Spacewatch MPS 311164
2003 09 18.40816 00 30 57.58 +00 49 41.4 21.9 V 691 – Steward Observatory, Kitt Peak-Spacewatch MPS 182620
2003 09 18.43545 00 30 56.32 +00 49 34.8 21.2 V 691 – Steward Observatory, Kitt Peak-Spacewatch MPS 182620
2003 09 18.46350 00 30 55.06 +00 49 27.9 21.8 V 691 – Steward Observatory, Kitt Peak-Spacewatch MPS 182620
2003 09 26.297240 00 24 55.610 +00 15 42.20 20.73 V 645 – Apache Point-Sloan Digital Sky Survey MPS 182620
2003 09 26.300712 00 24 55.441 +00 15 41.32 21.43   645 – Apache Point-Sloan Digital Sky Survey MPS 182620
2003 09 28.305570 00 23 21.283 +00 07 02.23 20.63 V 645 – Apache Point-Sloan Digital Sky Survey MPS 182620
2003 09 28.309042 00 23 21.114 +00 07 01.37 21.34   645 – Apache Point-Sloan Digital Sky Survey MPS 182620
2003 09 29.32695 00 22 33.29 +00 02 39.8 21.2 V 691 – Steward Observatory, Kitt Peak-Spacewatch MPS 182620
2003 09 29.36005 00 22 31.69 +00 02 31.3 21.0 V 691 – Steward Observatory, Kitt Peak-Spacewatch MPS 182620
2003 09 29.39038 00 22 30.21 +00 02 23.9 20.9 V 691 – Steward Observatory, Kitt Peak-Spacewatch MPS 182620
2003 10 19.225350 00 08 18.246 -01 10 21.00 21.20 V 645 – Apache Point-Sloan Digital Sky Survey MPS 182620
2003 10 19.228822 00 08 18.114 -01 10 21.54 21.82   645 – Apache Point-Sloan Digital Sky Survey MPS 182620
2003 10 24.19441 00 05 31.88 -01 22 42.2 22.5 V 691 – Steward Observatory, Kitt Peak-Spacewatch MPS 182620
2003 10 24.22142 00 05 31.02 -01 22 45.8 21.8 V 691 – Steward Observatory, Kitt Peak-Spacewatch MPS 182620
2003 10 24.24817 00 05 30.13 -01 22 49.4 21.8 V 691 – Steward Observatory, Kitt Peak-Spacewatch MPS 182620
2007 04 19.43626 15 08 35.60 -17 46 35.9 21.2 V 691 – Steward Observatory, Kitt Peak-Spacewatch MPS 311164
2007 04 19.45466 15 08 34.83 -17 46 33.4 21.2 V 691 – Steward Observatory, Kitt Peak-Spacewatch MPS 311164
2007 04 19.47330 15 08 34.02 -17 46 31.2 21.3 V 691 – Steward Observatory, Kitt Peak-Spacewatch MPS 311164
2009 10 27.41996 04 19 26.53 +22 25 48.1   691 – Steward Observatory, Kitt Peak-Spacewatch MPS 309286
2009 10 27.43716 04 19 25.92 +22 25 48.3   691 – Steward Observatory, Kitt Peak-Spacewatch MPS 309286
2009 10 27.45437 04 19 25.23 +22 25 47.5   691 – Steward Observatory, Kitt Peak-Spacewatch MPS 309286
2009 11 24.17600 03 57 14.68 +21 46 51.4 20.8 V 691 – Steward Observatory, Kitt Peak-Spacewatch MPS 309286
2009 11 24.19379 03 57 13.72 +21 46 49.1 21.0 V 691 – Steward Observatory, Kitt Peak-Spacewatch MPS 309286
2009 11 24.21158 03 57 12.73 +21 46 47.2 20.8 V 691 – Steward Observatory, Kitt Peak-Spacewatch MPS 309286
2009 12 11.17234 03 43 02.13 +21 11 25.0 21.9 V G96 – Mt. Lemmon Survey MPS 309286
2009 12 11.17749 03 43 01.92 +21 11 24.1 21.4 V G96 – Mt. Lemmon Survey MPS 309286
2009 12 11.18281 03 43 01.66 +21 11 22.9 21.3 V G96 – Mt. Lemmon Survey MPS 309286
2009 12 11.18800 03 43 01.34 +21 11 22.2 22.2 V G96 – Mt. Lemmon Survey MPS 309286
2009 12 18.24672 03 38 13.05 +20 57 49.7 21.2 V G96 – Mt. Lemmon Survey MPS 309286
2009 12 18.25349 03 38 12.76 +20 57 49.5 21.9 V G96 – Mt. Lemmon Survey MPS 309286
2009 12 18.26043 03 38 12.51 +20 57 49.1 21.2 V G96 – Mt. Lemmon Survey MPS 309286
2009 12 18.26744 03 38 12.30 +20 57 47.9 21.5 V G96 – Mt. Lemmon Survey MPS 309286
2011 01 30.48703 08 44 21.754 +21 43 38.19 22.3 w F51 – Pan-STARRS 1, Haleakala MPS 378592
2011 01 30.50335 08 44 20.905 +21 43 41.01 21.7 w F51 – Pan-STARRS 1, Haleakala MPS 378592
2011 01 30.51847 08 44 20.113 +21 43 43.86 21.6 w F51 – Pan-STARRS 1, Haleakala MPS 378592
2012 03 31.32417 13 17 45.34 -06 39 31.7 20.8 V G96 – Mt. Lemmon Survey MPS 418438
2012 03 31.33099 13 17 45.02 -06 39 30.1 20.4 V G96 – Mt. Lemmon Survey MPS 418438
2012 03 31.33790 13 17 44.73 -06 39 28.3 20.9 V G96 – Mt. Lemmon Survey MPS 418438
2012 03 31.34484 13 17 44.41 -06 39 25.3 19.9 V G96 – Mt. Lemmon Survey MPS 418438
2012 04 26.40069 12 57 59.072 -04 57 24.28 21.2 r F51 – Pan-STARRS 1, Haleakala MPS 421862
2012 04 26.41125 12 57 58.629 -04 57 22.35 21.0 r F51 – Pan-STARRS 1, Haleakala MPS 421862
2012 05 14.23880 12 48 25.56 -04 13 46.3 21.7 V G96 – Mt. Lemmon Survey MPS 424892
2012 05 14.24525 12 48 25.38 -04 13 45.2 21.2 V G96 – Mt. Lemmon Survey MPS 424892
2012 05 14.25169 12 48 25.20 -04 13 45.5 22.2 V G96 – Mt. Lemmon Survey MPS 424892
2012 05 14.25813 12 48 25.05 -04 13 44.6 21.9 V G96 – Mt. Lemmon Survey MPS 424892
2013 07 14.46779 20 10 28.943 -23 59 52.87 20.8 g F51 – Pan-STARRS 1, Haleakala MPS 472615
2013 07 14.47639 20 10 28.495 -23 59 54.40 20.9 g F51 – Pan-STARRS 1, Haleakala MPS 472615
2013 07 17.46823 20 07 58.381 -24 08 34.22 20.1 r F51 – Pan-STARRS 1, Haleakala MPS 472615
2013 07 17.46884 20 07 58.354 -24 08 34.27 20.2 r F51 – Pan-STARRS 1, Haleakala MPS 472615
2013 07 17.47858 20 07 57.837 -24 08 36.01 20.2 r F51 – Pan-STARRS 1, Haleakala MPS 472615
2013 07 17.47918 20 07 57.811 -24 08 36.00 20.2 r F51 – Pan-STARRS 1, Haleakala MPS 472615
2013 07 18.46062 20 07 07.981 -24 11 21.77 20.1 i F51 – Pan-STARRS 1, Haleakala MPS 472615
2013 07 18.47052 20 07 07.444 -24 11 23.50 20.1 i F51 – Pan-STARRS 1, Haleakala MPS 472615
2014 10 21.38720 02 26 51.44 +14 11 17.0 20.5 V G96 – Mt. Lemmon Survey MPS 542076
2014 10 21.39917 02 26 50.82 +14 11 15.0 21.0 V G96 – Mt. Lemmon Survey MPS 542076
2014 10 21.41019 02 26 50.31 +14 11 12.6 20.4 V G96 – Mt. Lemmon Survey MPS 542076
2014 10 24.18630 02 24 34.64 +14 02 04.8 21.5 V 691 – Steward Observatory, Kitt Peak-Spacewatch MPS 542076
2014 10 24.20660 02 24 33.66 +14 02 01.3 20.8 V 691 – Steward Observatory, Kitt Peak-Spacewatch MPS 542076
2014 10 24.22692 02 24 32.58 +14 01 57.1 20.8 V 691 – Steward Observatory, Kitt Peak-Spacewatch MPS 542076
2014 10 31.20425 02 18 44.61 +13 38 08.9 20.2 V G96 – Mt. Lemmon Survey MPS 544120
2014 10 31.20882 02 18 44.37 +13 38 07.5 20.2 V G96 – Mt. Lemmon Survey MPS 544120
2014 10 31.21340 02 18 44.10 +13 38 07.1 20.3 V G96 – Mt. Lemmon Survey MPS 544120
2014 10 31.21800 02 18 43.89 +13 38 05.8 20.2 V G96 – Mt. Lemmon Survey MPS 544120
2014 10 31.94565 02 18 07.54 +13 35 34.3 20.3 V I93 – St Pardon de Conques MPS 544792
2014 10 31.95656 02 18 07.02 +13 35 31.6 20.3 V I93 – St Pardon de Conques MPS 544792
2014 10 31.96900 02 18 06.39 +13 35 29.2 20.4 V I93 – St Pardon de Conques MPS 544792
2014 11 01.19865 02 17 55.05 +13 34 42.4 20.4 V G96 – Mt. Lemmon Survey MPS 544792
2014 11 01.20744 02 17 54.67 +13 34 40.5 20.1 V G96 – Mt. Lemmon Survey MPS 544792
2014 11 01.21622 02 17 54.14 +13 34 39.1 20.4 V G96 – Mt. Lemmon Survey MPS 544792
2014 11 01.22787 02 17 53.53 +13 34 35.8 20.5 V G96 – Mt. Lemmon Survey MPS 544792
2016 01 14.31035 07 12 14.31 +25 40 03.7 21.2 V G96 – Mt. Lemmon Survey MPS 671493
2016 01 14.31905 07 12 13.82 +25 40 04.9 21.8 V G96 – Mt. Lemmon Survey MPS 671493
2016 01 14.32775 07 12 13.32 +25 40 05.7 21.8 V G96 – Mt. Lemmon Survey MPS 671493
2016 01 14.33646 07 12 12.85 +25 40 06.5 20.9 V G96 – Mt. Lemmon Survey MPS 671493
2017 03 08.39117 11 47 57.84 +04 10 29.4 21.0 V G96 – Mt. Lemmon Survey MPS 777448
2017 03 08.39623 11 47 57.56 +04 10 32.1 21.5 V G96 – Mt. Lemmon Survey MPS 777448
2017 03 08.40051 11 47 57.35 +04 10 32.8 21.3 V G96 – Mt. Lemmon Survey MPS 777448
2017 03 08.40479 11 47 57.07 +04 10 36.2   G96 – Mt. Lemmon Survey MPS 777448
2017 03 18.29185 11 40 23.10 +04 55 39.3 21.3 V G96 – Mt. Lemmon Survey MPS 781501
2017 03 18.29613 11 40 22.88 +04 55 40.8 21.5 V G96 – Mt. Lemmon Survey MPS 781501
2017 03 18.29644 11 40 23.072 +04 55 41.42 21.1 w F51 – Pan-STARRS 1, Haleakala MPS 781501
2017 03 18.30040 11 40 22.74 +04 55 41.3 20.9 V G96 – Mt. Lemmon Survey MPS 781501
2017 03 18.30468 11 40 22.49 +04 55 43.4 21.2 V G96 – Mt. Lemmon Survey MPS 781501
2017 03 18.30809 11 40 22.509 +04 55 44.65 21.1 w F51 – Pan-STARRS 1, Haleakala MPS 781501
2017 03 18.31975 11 40 21.967 +04 55 47.62 21.1 w F51 – Pan-STARRS 1, Haleakala MPS 781501
